Regional Weather Roundup
Issued by NWS Kansas City/Pleasant Hill, MO

Home | Current Version | Previous Version | Graphics & Text | Print | Product List | Glossary Off
Versions: 1 2 3 4 5 6 7 8 9 10 11 12 13 14 15 16 17 18 19 20 21 22 23 24 25 26 27 28 29 30 31 32 33 34 35 36 37 38 39 40 41 42 43 44 45 46 47 48 49 50

000
ASUS43 KEAX 231910
RWREAX

WEATHER ROUNDUP FOR EASTERN KANSAS AND NORTHWEST MISSOURI
NATIONAL WEATHER SERVICE KANSAS CITY/PLEASANT HILL MO
200 PM CDT MON APR 23 2018

KSZ040-057-103>105-MOZ028-029-037-043-232000-
...KANSAS CITY METROPOLITAN AREA...

CITY           SKY/WX    TMP DP  RH WIND       PRES   REMARKS
K.C. INTL      MOSUNNY   73  33  23 NE10      30.06F
K.C. DOWNTOWN  SUNNY     73  33  23 N14G23    30.04F
LEES SUMMIT    SUNNY     73  33  23 NE20G25   30.05F
OLATHE - IXD   SUNNY     73  36  25 NE9G18    30.06F
OLATHE - OJC   SUNNY     71  35  26 NE12G20   30.05F
LAWRENCE       SUNNY     74  32  21 E12G22    30.06F

$$

MOZ001>008-011>017-020>025-030>033-038>040-044>046-053-054-232000-
...NORTHERN AND CENTRAL MISSOURI...

CITY           SKY/WX    TMP DP  RH WIND       PRES   REMARKS
ST. JOSEPH     SUNNY     74  35  24 NE14G21   30.07F
MOSBY          CLEAR     72  28  20 N13G21    30.05F
WARRENSBURG    CLOUDY    72  32  23 N16G23    30.02F
WHITEMAN AFB   NOT AVBL
CLINTON        MOSUNNY   72  36  26 NE16G23   30.01F
SEDALIA        CLOUDY    66  38  35 N15       30.03F
WARSAW         NOT AVBL
CHILLICOTHE      N/A     73  34  23 NE13G25   30.06F
KIRKSVILLE     CLOUDY    71  38  29 NE16G26   30.06F

$$

MOZ041-047>049-056>058-063>065-088>090-097-232000-
...EASTERN AND SOUTHERN MISSOURI...

CITY           SKY/WX    TMP DP  RH WIND       PRES   REMARKS
ST. LOUIS INTL CLOUDY    57  53  86 NE10      29.99F
SPIRIT OF STL  CLOUDY    58  54  86 NE10      29.98F
COLUMBIA       MOSUNNY   70  41  34 NE23G30   29.99F
JEFFERSON CITY MOSUNNY   69  44  40 NE13G28   29.97F
ROLLA          CLOUDY    55  49  80 NE18G26   29.98F
OSAGE BEACH    CLOUDY    68  47  46 NE18G26   29.97F
SPRINGFIELD    MOSUNNY   66  43  43 N20G31    29.96S
BRANSON        PTSUNNY   68  46  45 N18G30    29.94S
JOPLIN         SUNNY     69  48  47 N16G26    30.01F
WEST PLAINS    CLOUDY    54  49  83 N17G25    29.93R

$$

IAZ060-094-KSZ022-034>040-054-083-096-NEZ052-066-093-232000-
...KANSAS...SOUTHEAST NEBRASKA AND IOWA...

CITY           SKY/WX    TMP DP  RH WIND       PRES   REMARKS
TOPEKA         SUNNY     75  38  26 NE16G22   30.06F
MANHATTAN      MOSUNNY   72  31  22 E9        30.09F
EMPORIA        SUNNY     71  42  35 NE9G18    30.07F
CHANUTE        CLOUDY    71  47  42 N8        30.05F
WICHITA        MOSUNNY   71  40  32 N9G20     30.10F
OMAHA          MOSUNNY   73  29  19 NE9       30.12F
LINCOLN        SUNNY     72  30  21 NE7       30.14F
FALLS CITY     SUNNY     73  32  22 VRB7G17   30.09F
LAMONI         SUNNY     71  36  27 NE15G24   30.10F
DES MOINES     PTSUNNY   70  32  24 NE9G17    30.13F

$$




USA.gov is the U.S. government's official web portal to all federal, state and local government web resources and services.